This demonstration page uses our WeatherBlox Daily Observations layout. Learn more.

Left ArrowRight Arrow

44.8408, -93.29828

Hourly Observations for February 21, 2022

Temp ( °F °C ) Dew Point ( °F °C ) Humidity (%) Winds ( mph kmh ) Pressure ( in mb ) Visibility ( mi km ) Precip ( " mm )
12:53 am 00:53 Cloudy 25 -3.9 13 -10.6 60 60 NE 15 24 30.05 1018 10 16 0.00 0.00
1:53 am 01:53 Cloudy 24 -4.4 13 -10.6 62 62 NE 14 22 30.06 1018 10 16 0.00 0.00
2:53 am 02:53 Cloudy 23 -5 13 -10.6 65 65 NE 14 22 30.06 1018 10 16 0.00 0.00
3:53 am 03:53 Cloudy 22 -5.6 12 -11.1 66 66 ENE 14 22 30.05 1018 10 16 0.00 0.00
4:53 am 04:53 Cloudy 22 -5.6 12 -11.1 66 66 ENE 17 28 30.04 1017 10 16 0.00 0.00
5:53 am 05:53 Mostly Cloudy 21 -6.1 12 -11.1 68 68 NE 15 24 30.04 1017 10 16 0.00 0.00
6:32 am 06:32 Cloudy 21 -6.1 12 -11.1 68 68 ENE 15 24 30.10 1019 10 16 0.00 0.00
6:53 am 06:53 Cloudy 21 -6.1 12 -11.1 68 68 ENE 16 26 30.06 1018 10 16 0.00 0.00
7:53 am 07:53 Cloudy 22 -5.6 13 -10.6 68 68 NE 13 20 30.05 1018 10 16 0.00 0.00
8:53 am 08:53 Cloudy 22 -5.6 13 -10.6 68 68 ENE 16 26 30.04 1017 10 16 0.00 0.00
9:53 am 09:53 Cloudy 23 -5 14 -10 68 68 NE 20 31 30.03 1017 10 16 0.00 0.00
10:53 am 10:53 Cloudy 23 -5 13 -10.6 65 65 ENE 18 30 30.02 1017 10 16 0.00 0.00
11:53 am 11:53 Cloudy 24 -4.4 14 -10 65 65 NE 18 30 30.01 1016 10 16 0.00 0.00
12:53 pm 12:53 Cloudy 25 -3.9 13 -10.6 60 60 E 17 28 30.00 1016 10 16 0.00 0.00
1:53 pm 13:53 Cloudy 23 -5 13 -10.6 65 65 ENE 18 30 29.99 1016 10 16 0.00 0.00
2:53 pm 14:53 Cloudy 22 -5.6 12 -11.1 66 66 NE 20 31 29.98 1015 10 16 0.00 0.00
3:53 pm 15:53 Cloudy 21 -6.1 11 -11.7 65 65 NE 16 26 30.01 1016 10 16 0.00 0.00
4:53 pm 16:53 Cloudy 20 -6.7 10 -12.2 65 65 NE 21 33 30.02 1017 10 16 0.00 0.00
5:53 pm 17:53 Cloudy 19 -7.2 9 -12.8 65 65 NE 15 24 30.06 1018 10 16 0.00 0.00
6:53 pm 18:53 Cloudy 19 -7.2 9 -12.8 65 65 NNE 15 24 30.08 1019 10 16 0.00 0.00
7:53 pm 19:53 Cloudy 18 -7.8 9 -12.8 68 68 NNE 14 22 30.10 1019 10 16 0.00 0.00
8:53 pm 20:53 Cloudy 17 -8.3 8 -13.3 68 68 NNE 16 26 30.11 1020 10 16 0.00 0.00
9:53 pm 21:53 Cloudy 16 -8.9 7 -13.9 67 67 NNE 17 28 30.11 1020 10 16 0.00 0.00
9:56 pm 21:56 Cloudy with Light Snow 16 -8.9 7 -13.9 67 67 NNE 17 28 30.15 1021 10 16 0.00 0.00
10:53 pm 22:53 Cloudy with Light Snow 16 -8.9 7 -13.9 67 67 NE 16 26 30.11 1020 9 14 0.00 0.00
11:27 pm 23:27 Cloudy 15 -9.4 7 -13.9 70 70 NE 17 28 30.15 1021 9 14 0.00 0.00
11:35 pm 23:35 Cloudy with Light Snow 15 -9.4 7 -13.9 70 70 NE 16 26 30.15 1021 9 14 0.00 0.00
11:53 pm 23:53 Cloudy with Light Snow 15 -9.4 7 -13.9 70 70 NNE 18 30 30.12 1020 9 14 0.00 0.00

Powered by AerisWeather